Volver al catálogo

COSMOS 1579 COOLANT

LostLEO
NORAD 26514·DEBRIS·🇷🇺 Russia

Lanzado Jun 29, 1984 desde Baikonur Cosmodrome

Loading…

Próximos Pases (próximas 24 horas)

TLE

ObsoletoSource: Space-Track

Época: Apr 6, 2024, 16:40 UTC

1 26514U 84069F   24097.69472269  .00000178  00000-0  21120-3 0  9997
2 26514  65.0484 203.9314 0058609 283.1936  76.2594 13.90752120536321

Sigue COSMOS 1579 COOLANT en tiempo real con AllMySat

Download on the App Store